Location: Berlin
(52.5170°N, 13.3889°E)
Time: 22:30:22
(UTC+02:00)

LES 1 - Pass Details

Date: 16 June 2025
Orbit: 2779 x 2808 km, 32.1° (Epoch: 12 July)

Event Time Altitude Azimuth Distance (km) Brightness Sun altitude
Rises 00:44:52 0° 234° (SW) 6,568 12.0 -14.0°
Reaches altitude 10° 00:49:38 10° 225° (SW) 5,550 11.5 -14.0°
Maximum altitude 01:02:49 33° 169° (SSE) 3,965 10.6 -14.1°
Drops below altitude 10° 01:16:03 10° 112° (ESE) 5,569 11.7 -14.1°
Sets 01:20:50 0° 104° (ESE) 6,593 12.2 -14.1°
